[[[{"header":{"parameterUnit":"kt","parameterCategory":2,"dx":1,"dy":1,"la1":30.253999710083008,"la2":30.299108505249023,"lo1":-89.0895004272461,"lo2":-89.04439544677734,"nx":28,"ny":28,"refTime":"2022-09-20T21:00:00:Z","depth":0,"parameterNumber":1,"parameterNumberName":"U-component_of_WINDS"},"data":[-1.0475,-1.0304,-1.0247,-1.0025,-0.9936,-0.9774,-0.9697,-0.9592,-0.9492,-0.9291,-0.9164,-0.9086,-0.8962,-0.8795,-0.8653,-0.8621,-0.8566,-0.8549,-0.8515,-0.8644,-0.8658,-0.8671,-0.871,-0.8538,-0.8538,-0.839,-0.8389,-0.8388,-1.058,-1.049,-1.0356,-1.0186,-1.007,-1.0052,-0.9915,-0.9818,-0.9673,-0.9548,-0.9419,-0.9236,-0.9082,-0.896,-0.8802,-0.8719,-0.8701,-0.8681,-0.8687,-0.8668,-0.8803,-0.8845,-0.8699,-0.8699,-0.8699,-0.8699,-0.8699,-0.8699,-1.0755,-1.0655,-1.0519,-1.0371,-1.0269,-1.0155,-1.0048,-0.9956,-0.9821,-0.965,-0.9604,-0.9437,-0.9299,-0.9077,-0.8987,-0.8854,-0.8865,-0.8824,-0.8814,-0.8805,-0.8805,-0.9031,-0.8824,-0.8824,-0.8824,-0.8824,-0.8824,0,-1.0866,-1.0825,-1.0691,-1.054,-1.0429,-1.0305,-1.0181,-1.0113,-1.0001,-0.9894,-0.9734,-0.9631,-0.9427,-0.9269,-0.9105,-0.9018,-0.8987,-0.8975,-0.8947,-0.8969,-0.9011,-0.8989,-0.9216,-0.8982,-0.8983,-0.8984,-0.8984,-0.8985,-1.1041,-1.093,-1.0757,-1.0671,-1.0589,-1.045,-1.0354,-1.0264,-1.0166,-0.9999,-0.9912,-0.9752,-0.9619,-0.9369,-0.9258,-0.9104,-0.9087,-0.9005,-0.9063,-0.909,-0.9088,-0.9097,-0.9086,-0.8996,-0.8995,-0.8993,-0.8992,0,-1.1146,-1.105,-1.0857,-1.0696,-1.0652,-1.0539,-1.04,-1.0293,-1.0213,-1.0055,-1.0013,-0.9886,-0.9728,-0.9629,-0.9427,-0.938,-0.9191,-0.9177,-0.924,-0.9232,-0.9151,-0.9161,-0.8897,-0.8858,-0.9033,-0.9031,-0.903,0,-1.1258,-1.1114,-1.098,-1.0872,-1.0709,-1.0622,-1.0462,-1.0377,-1.0256,-1.013,-1.0079,-0.9962,-0.9852,-0.972,-0.965,-0.9478,-0.9439,-0.9393,-0.9376,-0.9398,-0.9404,-0.9345,-0.9354,-0.934,-0.9341,-0.9343,-0.9344,0,-1.1434,-1.119,-1.1016,-1.0945,-1.0757,-1.0676,-1.0593,-1.0457,-1.0363,-1.0224,-1.0162,-1.0006,-0.9921,-0.9801,-0.9713,-0.9757,-0.9498,-0.954,-0.9452,-0.9454,-0.94,-0.9405,-0.9196,-0.9345,-0.9346,-0.9346,-0.9347,0,-1.151,-1.1374,-1.1134,-1.0977,-1.0917,-1.08,-1.0643,-1.052,-1.0379,-1.0328,-1.0217,-1.017,-1.0009,-1.0059,-0.9836,-0.9919,-0.9837,-0.9778,-0.977,-0.975,-0.9808,-0.9706,-0.9515,-0.9492,-0.9732,-0.9735,-0.9738,0,-1.1738,-1.147,-1.1394,-1.1166,-1.1029,-1.0982,-1.0849,-1.0726,-1.0647,-1.0517,-1.0428,-1.028,-1.0295,-1.0235,-1.0137,-1.0039,-0.9932,-1.005,-0.9864,-0.9858,-0.9906,-0.9729,-0.9727,-0.9568,-0.9777,-0.9773,-0.977,0,-1.1903,-1.1676,-1.1641,-1.1557,-1.138,-1.1263,-1.1111,-1.0945,-1.0864,-1.0729,-1.06,-1.0386,-1.039,-1.0289,-1.0233,-1.0137,-1.0002,-1.0153,-1.0148,-1.0131,-0.9788,-0.9787,-0.9761,-0.9985,-0.998,-0.9976,-0.9802,0,-1.2044,-1.1896,-1.1796,-1.161,-1.1504,-1.1354,-1.125,-1.1152,-1.1111,-1.1031,-1.0836,-1.0705,-1.0533,-1.0475,-1.0432,-1.0243,-1.0259,-1.0263,-1.0304,-1.0188,-1.0128,-1.0103,-1.0403,-1.0403,-1.0404,-1.0404,0,0,-1.2287,-1.2073,-1.1993,-1.1843,-1.1749,-1.1701,-1.1551,-1.1452,-1.1254,-1.119,-1.1212,-1.0893,-1.0784,-1.0558,-1.0514,-1.0443,-1.04,-1.0443,-1.0244,-1.0226,-1.021,-1.0147,-1.0123,-1.0405,-1.0405,-1.0405,-1.0405,0,-1.2318,-1.2213,-1.2066,-1.1961,-1.1804,-1.1726,-1.1691,-1.1524,-1.1465,-1.1274,-1.1235,-1.1105,-1.085,-1.0741,-1.0653,-1.0468,-1.0445,-1.0423,-1.0361,-1.0252,-1.0234,-1.0218,-1.0153,-1.0131,-1.0406,-1.0406,-1.0406,0,-1.2463,-1.2343,-1.226,-1.2044,-1.1939,-1.1796,-1.1815,-1.1662,-1.1555,-1.1506,-1.1317,-1.1229,-1.1073,-1.0873,-1.0778,-1.0795,-1.0493,-1.0568,-1.0562,-1.0549,-1.0437,-1.0416,-1.0397,-1.065,-1.0651,-1.0652,0,0,-1.2503,-1.2365,-1.2206,-1.2042,-1.1979,-1.186,-1.1773,-1.1722,-1.1585,-1.1531,-1.1417,-1.1283,-1.1134,-1.1038,-1.0892,-1.0687,-1.0647,-1.0602,-1.0591,-1.0582,-1.0564,-1.0451,-1.043,-1.0657,-1.0657,-1.0658,0,0,-1.2521,-1.2332,-1.2315,-1.2112,-1.1985,-1.1815,-1.1718,-1.1692,-1.1551,-1.1556,-1.146,-1.142,-1.123,-1.1144,-1.1223,-1.0905,-1.0947,-1.0925,-1.0968,-1.0952,-1.094,-1.0965,-1.1221,0,0,0,0,0,-1.2499,-1.2356,-1.2343,-1.2293,-1.2016,-1.1824,-1.1787,-1.1707,-1.174,-1.1665,-1.1566,-1.1546,-1.1168,-1.1235,-1.1186,-1.1099,-1.0721,-1.071,-1.0699,-1.0705,-1.0689,-1.0676,0,0,0,0,0,0,-1.2479,-1.2419,-1.2346,-1.2173,-1.211,-1.1828,-1.1866,-1.184,-1.1746,-1.1745,-1.1566,-1.154,-1.1466,-1.1255,-1.1211,-1.113,-1.1235,-1.0716,-1.0707,-1.0698,-1.0699,-1.0687,-1.0676,0,0,0,0,0,-1.2463,-1.2414,-1.1992,-1.2174,-1.2119,-1.1978,-1.1871,-1.1849,-1.1775,-1.162,-1.1594,-1.1722,-1.1466,-1.1424,-1.1229,-1.1152,-1.1264,-1.1249,-1.071,-1.0703,-1.0696,-1.0693,0,0,0,0,0,0,-1.245,-1.2392,-1.1979,-1.1959,-1.2222,-1.1992,-1.1954,-1.1858,-1.1654,-1.1627,-1.1773,-1.1775,-1.1464,-1.1432,-1.1399,-1.1165,-1.1289,-1.1272,-1.1262,-1.0704,-1.0699,-1.0693,0,0,0,0,0,0,-1.2417,-1.2375,-1.1969,-1.2034,-1.2021,-1.2005,-1.1971,-1.1792,-1.1652,-1.1817,-1.1813,-1.1776,-1.1511,-1.1437,-1.1411,-1.1135,-1.1307,-1.1291,-1.1281,-1.1274,-1.07,-1.0695,0,0,0,0,0,0,-1.2398,-1.2362,-1.2039,-1.2029,-1.2017,-1.1789,-1.1846,-1.1566,-1.1712,-1.1827,-1.1722,-1.1727,-1.1516,-1.1489,-1.142,-1.1155,-1.114,-1.1306,-1.1296,-1.1288,-1.1283,0,0,0,0,0,0,0,-1.2382,-1.2644,-1.2097,-1.2024,-1.2014,-1.1776,-1.1771,-1.1765,-1.1713,-1.1717,-1.1721,-1.1725,-1.1395,-1.1378,-1.1361,-1.117,0,0,-1.1308,-1.13,0,0,0,0,0,0,0,0,-1.2657,-1.2647,-1.2096,-1.2092,-1.2088,-1.1775,-1.1771,-1.1766,-1.1713,-1.1717,-1.172,-1.1723,-1.139,-1.1376,-1.1363,0,0,0,0,0,0,0,0,0,0,0,0,0,0,0,-1.2096,-1.2092,0,-1.1775,-1.1771,-1.1767,-1.1714,-1.1717,-1.172,-1.1722,-1.1386,-1.1375,-1.1364,0,0,0,0,0,0,0,0,0,0,0,0,0,0,0,0,0,0,0,0,0,0,0,0,0,0,0,0,0,0,0,0,0,0,0,0,0,0,0,0,0,0,0,0,0,0,0,0,0,0,0,0,0,0,0,0,0,0,0,0,0,0,0,0,0,0,0,0,0]}],[{"header":{"parameterUnit":"kt","parameterCategory":2,"dx":1,"dy":1,"la1":30.253999710083008,"la2":30.299108505249023,"lo1":-89.0895004272461,"lo2":-89.04439544677734,"nx":28,"ny":28,"refTime":"2022-09-20T21:00:00:Z","depth":0,"parameterNumber":2,"parameterNumberName":"V-component_of_WINDS"},"data":[-0.0498,-0.0439,-0.0463,-0.0407,-0.0419,-0.0386,-0.0382,-0.0379,-0.0382,-0.0346,-0.0329,-0.0346,-0.036,-0.0346,-0.033,-0.0338,-0.0332,-0.0296,-0.0313,-0.0452,-0.0473,-0.0493,-0.0511,-0.0293,-0.0292,-0.0169,-0.0168,-0.0167,-0.0606,-0.0618,-0.0593,-0.0586,-0.0567,-0.0617,-0.0615,-0.0596,-0.0564,-0.0567,-0.055,-0.0519,-0.0498,-0.0523,-0.0507,-0.0482,-0.0506,-0.0477,-0.0482,-0.0485,-0.0632,-0.0651,-0.0458,-0.0458,-0.0458,-0.0458,-0.0458,-0.0458,-0.0812,-0.0773,-0.0783,-0.0757,-0.0759,-0.0754,-0.0722,-0.0744,-0.072,-0.0705,-0.0735,-0.0699,-0.0706,-0.0696,-0.0698,-0.0672,-0.0709,-0.0684,-0.068,-0.0675,-0.0668,-0.0856,-0.0669,-0.0669,-0.067,-0.067,-0.0671,0,-0.0971,-0.0994,-0.097,-0.0955,-0.0936,-0.0926,-0.092,-0.09,-0.0954,-0.0931,-0.0901,-0.0888,-0.0862,-0.0838,-0.0825,-0.0832,-0.0884,-0.0888,-0.0874,-0.0863,-0.0857,-0.0867,-0.1114,-0.0895,-0.0897,-0.0898,-0.0899,-0.09,-0.1186,-0.1136,-0.1155,-0.1136,-0.1138,-0.1104,-0.109,-0.114,-0.1122,-0.1122,-0.1086,-0.106,-0.1043,-0.0989,-0.1015,-0.0995,-0.1021,-0.0937,-0.1018,-0.101,-0.1029,-0.1034,-0.1033,-0.0921,-0.0919,-0.0917,-0.0915,0,-0.1307,-0.1344,-0.1273,-0.1295,-0.13,-0.1245,-0.1265,-0.1227,-0.1251,-0.1204,-0.1196,-0.1233,-0.1202,-0.1241,-0.1211,-0.1233,-0.1151,-0.1172,-0.1152,-0.1161,-0.1094,-0.1102,-0.0857,-0.0831,-0.105,-0.1048,-0.1046,0,-0.1509,-0.1439,-0.1499,-0.1455,-0.1382,-0.1434,-0.1359,-0.1373,-0.1377,-0.134,-0.1402,-0.1366,-0.1421,-0.1391,-0.1422,-0.136,-0.1352,-0.1368,-0.1378,-0.1366,-0.1365,-0.1361,-0.1375,-0.1394,-0.1395,-0.1396,-0.1397,0,-0.1699,-0.1645,-0.1574,-0.1568,-0.1584,-0.1549,-0.1554,-0.1558,-0.1542,-0.1526,-0.1518,-0.1494,-0.1483,-0.1466,-0.1507,-0.1562,-0.143,-0.1514,-0.1447,-0.1446,-0.1419,-0.1421,-0.119,-0.1399,-0.1399,-0.1399,-0.14,0,-0.1869,-0.1851,-0.1739,-0.1756,-0.174,-0.169,-0.1674,-0.164,-0.164,-0.1657,-0.1644,-0.1692,-0.1635,-0.1717,-0.1643,-0.1704,-0.169,-0.1698,-0.1693,-0.1696,-0.1788,-0.1661,-0.1431,-0.1412,-0.1693,-0.1695,-0.1697,0,-0.2081,-0.1976,-0.202,-0.1911,-0.1869,-0.1946,-0.1892,-0.1889,-0.1907,-0.1875,-0.1895,-0.1856,-0.1924,-0.1918,-0.1874,-0.1895,-0.1814,-0.1905,-0.1865,-0.1863,-0.1871,-0.1658,-0.1618,-0.1476,-0.1729,-0.1725,-0.1723,0,-0.2251,-0.2268,-0.2245,-0.2243,-0.2244,-0.2206,-0.2143,-0.2116,-0.2093,-0.2078,-0.2031,-0.1972,-0.2025,-0.2011,-0.2046,-0.1999,-0.187,-0.2061,-0.2062,-0.2031,-0.1745,-0.1708,-0.1684,-0.1905,-0.1901,-0.1898,-0.1748,0,-0.2514,-0.2462,-0.2399,-0.2385,-0.2361,-0.2291,-0.2332,-0.2302,-0.234,-0.2361,-0.2286,-0.2288,-0.2259,-0.2238,-0.2272,-0.215,-0.2178,-0.2232,-0.2319,-0.2176,-0.2128,-0.2108,-0.2387,-0.239,-0.2392,-0.2394,0,0,-0.2712,-0.2639,-0.2687,-0.2627,-0.2611,-0.269,-0.2614,-0.2606,-0.2588,-0.2576,-0.2624,-0.2543,-0.2542,-0.2448,-0.2406,-0.239,-0.2375,-0.2421,-0.2242,-0.2225,-0.2209,-0.2157,-0.2135,-0.2398,-0.2399,-0.24,-0.2401,0,-0.2818,-0.2813,-0.2735,-0.273,-0.2724,-0.2749,-0.273,-0.2737,-0.2747,-0.267,-0.2738,-0.2696,-0.2625,-0.262,-0.2608,-0.2433,-0.2487,-0.2419,-0.2315,-0.2263,-0.2243,-0.2225,-0.217,-0.2149,-0.2406,-0.2406,-0.2406,0,-0.2997,-0.3003,-0.2968,-0.293,-0.2926,-0.2877,-0.2978,-0.2918,-0.2884,-0.2972,-0.2895,-0.2901,-0.2894,-0.2795,-0.2752,-0.2795,-0.2589,-0.2656,-0.2643,-0.264,-0.2592,-0.2568,-0.2546,-0.2834,-0.2836,-0.2837,0,0,-0.3084,-0.3034,-0.3055,-0.2955,-0.2948,-0.2983,-0.2958,-0.2994,-0.2985,-0.2981,-0.2991,-0.298,-0.2942,-0.2914,-0.2879,-0.2762,-0.2768,-0.2708,-0.2688,-0.2671,-0.2659,-0.2607,-0.2582,-0.2842,-0.2842,-0.2843,0,0,-0.3125,-0.3146,-0.3185,-0.3074,-0.3063,-0.3077,-0.3016,-0.3064,-0.3036,-0.3048,-0.3103,-0.3102,-0.301,-0.3013,-0.3077,-0.2911,-0.2995,-0.2981,-0.2914,-0.2888,-0.2869,-0.2872,-0.3181,0,0,0,0,0,-0.3254,-0.3144,-0.3179,-0.3166,-0.3116,-0.3058,-0.3052,-0.3095,-0.3156,-0.3107,-0.3123,-0.3181,-0.306,-0.3118,-0.3105,-0.3034,-0.2908,-0.2896,-0.2885,-0.2772,-0.2745,-0.2723,0,0,0,0,0,0,-0.3249,-0.3233,-0.3182,-0.319,-0.3179,-0.3062,-0.3175,-0.3184,-0.3163,-0.3175,-0.3176,-0.3181,-0.3216,-0.3128,-0.3115,-0.3047,-0.3186,-0.2903,-0.2894,-0.2885,-0.2763,-0.2741,-0.2722,0,0,0,0,0,-0.3246,-0.3233,-0.3141,-0.3192,-0.3183,-0.3214,-0.318,-0.3188,-0.3172,-0.3196,-0.3203,-0.3207,-0.3213,-0.3205,-0.312,-0.3052,-0.3195,-0.319,-0.2897,-0.2889,-0.2882,-0.2752,0,0,0,0,0,0,-0.3243,-0.324,-0.314,-0.3139,-0.3236,-0.3222,-0.3221,-0.3191,-0.3195,-0.3201,-0.323,-0.324,-0.3209,-0.3204,-0.3198,-0.3051,-0.3202,-0.3197,-0.3194,-0.2891,-0.2885,-0.2879,0,0,0,0,0,0,-0.3248,-0.3239,-0.3139,-0.3193,-0.3199,-0.3228,-0.3228,-0.316,-0.3194,-0.323,-0.3238,-0.3234,-0.3219,-0.3202,-0.3198,-0.3091,-0.3208,-0.3203,-0.32,-0.3198,-0.2886,-0.2881,0,0,0,0,0,0,-0.3245,-0.3237,-0.3194,-0.3198,-0.3203,-0.3193,-0.317,-0.3116,-0.324,-0.3228,-0.3253,-0.3258,-0.3215,-0.3212,-0.3198,-0.3092,-0.3091,-0.3208,-0.3204,-0.3202,-0.3201,0,0,0,0,0,0,0,-0.3242,-0.3282,-0.3147,-0.3202,-0.3206,-0.3128,-0.3128,-0.3127,-0.3242,-0.3247,-0.3251,-0.3256,-0.3235,-0.323,-0.3225,-0.3093,0,0,-0.3208,-0.3206,0,0,0,0,0,0,0,0,-0.3287,-0.3283,-0.3147,-0.3147,-0.3146,-0.3128,-0.3128,-0.3128,-0.3242,-0.3246,-0.325,-0.3254,-0.3234,-0.323,-0.3225,0,0,0,0,0,0,0,0,0,0,0,0,0,0,0,-0.3147,-0.3147,0,-0.3128,-0.3128,-0.3128,-0.3243,-0.3246,-0.325,-0.3253,-0.3233,-0.3229,-0.3226,0,0,0,0,0,0,0,0,0,0,0,0,0,0,0,0,0,0,0,0,0,0,0,0,0,0,0,0,0,0,0,0,0,0,0,0,0,0,0,0,0,0,0,0,0,0,0,0,0,0,0,0,0,0,0,0,0,0,0,0,0,0,0,0,0,0,0,0,0]}]]]